Location: Asbacherhof
(48.8543°N, 10.7903°E)
Time: 23:05:30
(UTC+00:00)

Cosmos 2298 Rocket - Pass Details

Date: 26 May 2022
Orbit: 775 x 784 km, 74.0° (Epoch: 26 June)

Event Time Altitude Azimuth Distance (km) Brightness Sun altitude
Exits shadow 00:07:42 37° 195° (SSW) 1,195 4.4 -19.0°
Maximum altitude 00:09:52 83° 112° (ESE) 789 4.0 -18.9°
Drops below altitude 10° 00:15:11 10° 25° (NNE) 2,340 7.7 -18.7°
Sets 00:17:35 0° 24° (NNE) 3,273 8.9 -18.6°
